Preview of NWS' New Version of Forecast
This preview is not operational and should not be used for support decisions.
Latest weather observations around

Baltimore / Martin (KMTN)

Using English Units (Switch to International System of Units)
Date/ Time (EDT) Wind (mph) Vis. (mi) Weather Sky Cond. Temp (°F) Rel. Humidity Wind Chill (°F) Heat Index (°F) Pressure Precip. (in)
Air Dwpt 6 hour Altimeter (inHg) Sea level (inHg) 1 hr 3 hr 6 hr
Max Min
Sep 16 09:55 Calm 10 Partly Cloudy SCT095 SCT250 77 66     69%   78 30.09        
Sep 16 08:55 Calm 10 Partly Cloudy SCT250 72 64     78%   72 30.09        
Sep 16 07:54 Calm 10 Partly Cloudy SCT100 64 64     100%     30.09        
Sep 16 06:54 Calm 10 Partly Cloudy SCT120 63 63     100%     30.09        
Sep 16 05:45 Calm 10 Cloudy OVC120 64 63     94%     30.08        
Sep 16 05:30 Calm 10 Cloudy OVC120 64 64     100%     30.08        
Sep 16 05:22 Calm 10 Cloudy OVC110 64 64     100%     30.08        
Sep 16 05:02 Calm 10 Cloudy OVC110 64 63     94%     30.08        
Sep 16 04:42 Calm 10 Cloudy OVC110 64 63     94%     30.08        
Sep 16 04:22 Calm 10 Cloudy OVC110 63 63     100%     30.08        
Sep 16 04:02 Calm 10 Mostly Cloudy BKN110 63 63     100%     30.08        
Sep 16 03:42 Calm 10 Clear CLR 63 63     100%     30.08        
Sep 16 03:22 Calm 10 Clear CLR 63 63     100%     30.08        
Sep 16 03:02 Calm 10 Clear CLR 63 63     100%     30.09        
Sep 16 02:42 Calm 10 Partly Cloudy SCT120 63 63     100%     30.1        
Sep 16 02:22 Calm 10 Partly Cloudy SCT120 64 64     100%     30.1        
Sep 16 02:02 Calm 10 Partly Cloudy SCT110 64 63     94%     30.1        
Sep 16 01:42 Calm 10 Partly Cloudy SCT110 64 64     100%     30.1        
Sep 16 01:22 Calm 10 Partly Cloudy SCT110 64 63     94%     30.1        
Sep 16 01:02 Calm 10 Clear CLR 64 64     100%     30.1        
Sep 16 00:42 Calm 10 Clear CLR 64 64     100%     30.1        
Sep 16 00:22 Calm 10 Clear CLR 64 63     94%     30.11        
Sep 16 00:02 Calm 10 Clear CLR 64 63     94%     30.11        
Sep 15 23:42 Calm 10 Clear CLR 68 63     83%     30.11        
Sep 15 23:22 Calm 10 Clear CLR 68 64     88%     30.11        
Sep 15 23:02 Calm 10 Clear CLR 68 64     88%     30.11        
Sep 15 22:42 Calm 10 Clear CLR 68 64     88%     30.11        
Sep 15 22:22 Calm 10 Clear CLR 70 64     83%     30.11        
Sep 15 22:02 Calm 10 Clear CLR 68 64     88%     30.1        
Sep 15 21:54 Calm 10 Clear CLR 70 63     78%     30.1        
Sep 15 20:54 Calm 10 Clear CLR 70 66     88%     30.11        
Sep 15 19:54 Calm 10 Clear CLR 73 64     73%   74 30.11        
Sep 15 18:54 Calm 10 Clear CLR 79 63     58%   79 30.1        
Sep 15 17:54 NW 6 10 Mostly Clear FEW250 84 55     37%   83 30.1        
Sep 15 16:54 N 3 10 Mostly Clear FEW250 86 55     35%   85 30.11        
Sep 15 15:54 WNW 7 10 Mostly Clear FEW250 86 55     35%   85 30.11        
Sep 15 14:54 Calm 10 Mostly Clear FEW250 86 55     35%   85 30.12        
Sep 15 13:54 Calm 10 Partly Cloudy FEW120 SCT200 82 59     45%   82 30.15        
Sep 15 12:54 WNW 8 10 Partly Cloudy FEW065 SCT200 81 61     51%   81 30.17        
Sep 15 11:54 NNW 3 10 Partly Cloudy FEW038 SCT120 81 63     54%   82 30.19        
Sep 15 10:54 NW 3 10 Partly Cloudy FEW035 SCT180 77 66     69%   78 30.2        
Sep 15 09:54 N 6 10 Partly Cloudy FEW045 SCT150 77 66     69%   78 30.2        
Sep 15 08:54 NNW 8 10 Partly Cloudy FEW013 SCT035 73 70     89%   75 30.19        
Sep 15 07:54 Calm 10 Partly Cloudy SCT043 72 72     100%   73 30.18        
Sep 15 06:54 NW 3 10 Partly Cloudy SCT045 70 70     100%     30.17        
Sep 15 05:55 NW 3 10 Mostly Cloudy BKN025 73 72     94%   75 30.17        
Sep 15 05:30 Calm 10 Cloudy OVC025 73 72     94%   75 30.17        
Sep 15 05:22 Calm 10 Cloudy OVC023 73 72     94%   75 30.17        
Sep 15 05:02 Calm 10 Cloudy SCT023 SCT028 OVC041 73 72     94%   75 30.17        
Sep 15 04:42 Calm 10 Cloudy BKN031 BKN039 OVC049 73 72     94%   75 30.17        
Sep 15 04:22 Calm 10 Cloudy OVC031 75 72     89%   77 30.16        
Sep 15 04:02 WSW 3 10 Cloudy OVC031 73 72     94%   75 30.16        
Sep 15 03:42 Calm 10 Cloudy BKN035 OVC050 75 72     89%   77 30.16        
Sep 15 03:22 Calm 10 Cloudy BKN035 OVC048 75 72     89%   77 30.16        
Sep 15 03:02 Calm 10 Cloudy SCT035 SCT041 OVC046 73 72     94%   75 30.17        
Sep 15 02:42 Calm 10 Cloudy OVC046 75 72     89%   77 30.17        
Sep 15 02:22 Calm 10 Cloudy BKN040 OVC047 75 72     89%   77 30.17        
Sep 15 02:02 Calm 10 Cloudy BKN040 OVC045 75 72     89%   77 30.17        
Sep 15 01:42 Calm 10 Cloudy OVC037 75 73     94%   77 30.17        
Sep 15 01:22 Calm 10 Cloudy OVC035 75 73     94%   77 30.17        
Sep 15 01:02 Calm 10 Cloudy OVC037 75 73     94%   77 30.16        
Sep 15 00:42 Calm 10 Cloudy OVC035 75 73     94%   77 30.16        
Sep 15 00:22 Calm 10 Cloudy OVC035 75 73     94%   77 30.16        
Sep 15 00:02 Calm 10 Cloudy OVC035 75 73     94%   77 30.17        
Sep 14 23:42 Calm 10 Cloudy OVC035 77 73     89%   79 30.18        
Sep 14 23:22 Calm 10 Cloudy OVC035 77 73     89%   79 30.18        
Sep 14 23:02 Calm 10 Cloudy OVC035 77 73     89%   79 30.19        
Sep 14 22:42 SSE 5 10 Cloudy OVC037 75 73     94%   77 30.18        
Sep 14 22:22 SSE 5 10 Cloudy OVC037 77 72     83%   78 30.19        
Sep 14 22:02 SSE 6 10 Cloudy OVC037 77 72     83%   78 30.19        
Sep 14 21:54 SSE 5 10 Cloudy OVC037 77 72     83%   78 30.2        
Sep 14 20:55 SSE 5 10 Cloudy OVC037 77 72     83%   78 30.19        
Sep 14 19:58 S 3 10 Cloudy OVC037 77 70     78%   78 30.18        
Sep 14 18:55 SSE 7 10 Cloudy OVC037 77 70     78%   78 30.18        
Sep 14 17:55 SSE 10 10 Cloudy OVC037 77 70     78%   78 30.18        
Sep 14 16:55 SSE 10 10 Cloudy OVC033 77 70     78%   78 30.19        
Sep 14 15:55 SSE 9 10 Cloudy OVC032 77 70     78%   78 30.2        
Sep 14 14:55 SSE 10 10 Cloudy OVC032 77 68     74%   78 30.22        
Sep 14 13:55 SSE 9 10 Cloudy OVC028 77 68     74%   78 30.24        
Sep 14 11:56 SE 8   Mostly Cloudy SCT023 BKN033 75 70     83%   76 30.29        
Sep 14 10:56 SE 7   Mostly Cloudy FEW020 BKN030 73 68     83%   74 30.31        
Sep 14 09:56 SE 7   Cloudy SCT017 OVC031 72 68     88%   73 30.32        
Sep 14 08:56 SSE 6 10 Cloudy OVC029 70 66     88%     30.32        
Sep 14 07:56 Calm 10 Cloudy OVC027 68 64     88%     30.33        
Sep 14 06:56 E 3 10 Cloudy OVC033 68 63     83%     30.32        
Sep 14 05:56 Calm 10 Cloudy OVC033 64 63     94%     30.32        
Sep 14 05:30 Calm 10 Cloudy OVC033 64 63     94%     30.32        
Sep 14 05:22 ENE 3 10 Cloudy OVC033 64 63     94%     30.32        
Sep 14 05:02 ENE 5 10 Mostly Cloudy BKN033 64 63     94%     30.31        
Sep 14 04:42 ENE 3 10 Clear CLR 64 63     94%     30.32        
Sep 14 04:22 Calm 10 Partly Cloudy SCT036 64 63     94%     30.33        
Sep 14 04:00 ENE 3 10 Cloudy BKN029 OVC034 64 63     94%     30.32        
Sep 14 03:42 NE 3 10 Cloudy OVC033 64 63     94%     30.33        
Sep 14 03:22 NE 3 10 Cloudy OVC033 64 63     94%     30.33        
Sep 14 03:02 Calm 10 Cloudy OVC036 64 63     94%     30.33        
Sep 14 02:42 ENE 5 10 Cloudy OVC034 64 63     94%     30.33        
Sep 14 02:22 Calm 10 Partly Cloudy SCT036 64 63     94%     30.34        
Sep 14 02:02 ENE 3 10 Clear CLR 64 63     94%     30.35        
Sep 14 01:42 ENE 3 10 Partly Cloudy SCT049 64 63     94%     30.36        
Sep 14 01:22 ENE 3 10 Mostly Cloudy BKN049 66 63     88%     30.37        
Sep 14 01:02 ENE 5 10 Cloudy SCT037 OVC049 66 63     88%     30.37        
Sep 14 00:42 Calm 10 Partly Cloudy SCT039 64 63     94%     30.38        
Sep 14 00:22 ENE 5 10 Partly Cloudy SCT055 66 63     88%     30.38        
Sep 14 00:02 ENE 3 10 Clear CLR 66 61     83%     30.38        
Sep 13 23:42 ENE 5 10 Mostly Cloudy SCT033 BKN044 66 61     83%     30.39        
Sep 13 23:22 E 3 10 Cloudy SCT033 OVC046 68 61     78%     30.39        
Sep 13 23:02 ENE 3 10 Cloudy OVC046 68 61     78%     30.39        
Sep 13 22:42 ENE 5 10 Clear   68 61     78%     30.4        
Sep 13 22:22 E 5 10 Clear   68 61     78%     30.4        
Sep 13 22:02 E 7 10 Clear   68 61     78%     30.4        
Sep 13 19:54 E 14 10 Cloudy OVC048 70 61     73%     30.4        
Sep 13 18:54 E 9 10 Cloudy BKN032 BKN041 OVC046 70 59     69%     30.39        
Sep 13 16:54 E 5 10 Cloudy OVC040 70 59     69%     30.4        
Sep 13 15:54 E 10 10 Cloudy BKN035 OVC043 72 59     65%   71 30.4        
Sep 13 14:54 E 8 10 Cloudy OVC035 75 59     57%   75 30.41        
Sep 13 13:54 E 10 10 Cloudy OVC027 70 59     69%     30.41        
Sep 13 12:56 E 7 10 Cloudy OVC025 70 61     73%     30.42        
Sep 13 11:56 ENE 7 10 Cloudy OVC027 68 61     78%     30.42        
Sep 13 10:56 ENE 10 10 Cloudy OVC028 68 61     78%     30.41        
May 14 16:45 SE 5 6 Partly Cloudy SCT110 72 66     83%   72 30        
Notice The following observation data may not be complete
May 14 07:45   4 Cloudy OVC004          %              
May 14 02:00 Calm 10 Cloudy OVC007 59 59     100%     30.03        
May 13 23:39 Calm 7 Thunderstorms OVC007 59 59     100%              
May 12 22:21 Calm 7 Clear CLR 64 64     100%     30   0    
May 12 01:00 E 5 10 Clear CLR 66 59     78%     30.07        
May 11 23:39 Calm 10 Partly Cloudy SCT120 70 57     64%     30.1        
May 11 22:39 Calm 10 Clear CLR 68 59     73%     30.09        
May 11 17:45 NW 6 10 Cloudy BKN080 OVC100 79 52     39%   78 30.03        
Jun 12 03:12 Calm 10 Clear CLR 70 70     100%     30.05        
Jun 12 01:54 Calm 10 Clear CLR 72 70     94%   73 30.06        
Jun 12 00:12 Calm 10 Clear CLR 73 68     83%   74 30.07        
Jun 11 08:50 Calm 10 Clear CLR 79 68     70%   80 30.15        
Notice The following observation data may not be complete
Jun 11 07:55   10 Clear CLR          %              
Jun 11 04:33 Calm 10 Clear CLR 68 68     100%     30.07        
Jun 10 16:45 SSE 15 10 Partly Cloudy SCT120 84 64     52%   86 30.01        
Jun 10 02:33 Calm 10 Clear CLR 64 55     73%     29.98        
Jun 09 22:33 Calm 10 Clear CLR 72 57     60%   71 29.94        
Notice The following observation data may not be complete
Jun 09 02:33   10 Clear CLR          %              
Jun 08 19:45 ENE 3 10 Mostly Clear FEW200 70 57     64%     29.85        
Notice The following observation data may not be complete
Jun 08 00:33   10 Clear CLR          %              
Jun 07 12:45 NNE 5 10 Cloudy OVC019 63 55     77%     30.03        
Jun 06 03:54 Calm 5 Fog/Mist BKN005 OVC010 66 66     100%     29.67        
Jun 05 23:12 Calm 3 Clear   68 68     100%     29.68